Location: Newark
(40.2370°N, 1.4081°W)
Time: 08:55:10
(UTC+00:00)

N. Korean satellite - Pass Details

Date: 29 October 2019
Orbit: 456 x 506 km, 97.2° (Epoch: 17 November)

Event Time Altitude Azimuth Distance (km) Brightness Sun altitude
Rises 17:49:18 0° 192° (SSW) 2,469 10.5 -8.7°
Reaches altitude 10° 17:51:33 10° 205° (SSW) 1,606 9.7 -9.1°
Maximum altitude 17:54:29 26° 264° (W) 954 9.1 -9.7°
Drops below altitude 10° 17:57:29 10° 323° (NW) 1,637 9.6 -10.2°
Sets 17:59:48 0° 336° (NNW) 2,529 10.4 -10.7°
